User: anonymous   Login
Location: Morehead State University
(38.1872°N, 83.4339°W)
Time: 18:49:14
(UTC-04:00)
Language:

Okean 2 - Orbit

View from above orbital plane
View from above orbital plane
View from above satellite
View from above satellite

Ground track
Ground track

The orbit data is extracted from the following two-line orbital elements,

1 20510U 90018A   17179.51890505 +.00000390 +00000-0 +30037-4 0  9993
2 20510 082.5152 160.5769 0010934 309.3621 190.2116 14.98923248462022
Epoch (UTC): 28 June 2017 12:27:13
Eccentricity: 0.0010934
inclination: 82.5152°
perigee height: 562 km
apogee height: 578 km
right ascension of ascending node: 160.5769°
argument of perigee: 309.3621°
revolutions per day: 14.98923248
mean anomaly at epoch: 190.2116°
orbit number at epoch: 46202

The dashed part of the orbit path shows where the satellite is in the earth's shadow,  

DLR